Regional Weather Roundup
Issued by NWS Raleigh/Durham, NC

Home | Current Version | Previous Version | Text Only | Print | Product List | Glossary On
Versions: 1 2 3 4 5 6 7 8 9 10 11 12 13 14 15 16 17 18 19 20 21 22 23 24 25 26 27 28 29 30 31 32 33 34 35 36 37 38 39 40 41 42 43 44 45 46 47 48 49 50
000
ASUS42 KRAH 210710
RWRRAH
NORTH CAROLINA WEATHER ROUNDUP
NATIONAL WEATHER SERVICE RALEIGH NC
200 AM EST TUE NOV 21 2017

NOTE: "FAIR" INDICATES FEW OR NO CLOUDS BELOW 12,000 FEET WITH NO
SIGNIFICANT WEATHER AND/OR OBSTRUCTIONS TO VISIBILITY.

NCZ001-053-055-056-065-067-210800-
WESTERN NORTH CAROLINA

CITY           SKY/WX    TMP DP  RH WIND       PRES   REMARKS
ASHEVILLE      CLOUDY    34  28  79 SE7       30.19S WCI  28
JEFFERSON      CLOUDY    33  24  69 SE3       30.13F
HICKORY        PTCLDY    32  30  92 CALM      30.20S
RUTHERFORDTON  CLOUDY    32  31  97 CALM      30.22S
MOUNT AIRY     CLOUDY    33  27  79 CALM      30.21S
BOONE          CLOUDY    33  24  69 CALM      30.15S
$$

NCZ021-022-025-041-071-084-088-210800-
CENTRAL NORTH CAROLINA

CITY           SKY/WX    TMP DP  RH WIND       PRES   REMARKS
CHARLOTTE      MOCLDY    38  29  70 S5        30.23S WCI  34
GREENSBORO     CLOUDY    37  26  64 S5        30.20S WCI  33
WINSTON-SALEM  CLOUDY    41  24  51 SW5       30.21S
RALEIGH-DURHAM CLOUDY    36  30  79 CALM      30.24S
FORT BRAGG     CLOUDY    33  31  92 CALM      30.24S FOG
FAYETTEVILLE   CLOUDY    34  31  88 CALM      30.24F
BURLINGTON     CLOUDY    30  27  88 CALM      30.21F
LAURINBURG     CLOUDY    30  28  92 CALM      30.26S
$$

NCZ011-015-027-028-043-044-047-080-103-210800-
NORTHEASTERN NORTH CAROLINA

CITY           SKY/WX    TMP DP  RH WIND       PRES   REMARKS
ROCKY MT-WILSO CLOUDY    33  31  92 CALM      30.25F
GREENVILLE     CLOUDY    34  32  93 CALM      30.26F FOG
WASHINGTON     CLOUDY    35  33  93 CALM      30.27F
ELIZABETH CITY CLOUDY    39  37  92 S6        30.28S WCI  35
MANTEO         CLEAR     36  35  96 CALM      30.28F
CAPE HATTERAS  CLEAR     40  40 100 N5        30.27S
$$

NCZ078-087-090-091-093-098-101-210800-
SOUTHEASTERN NORTH CAROLINA

CITY           SKY/WX    TMP DP  RH WIND       PRES   REMARKS
LUMBERTON      CLEAR     30  29  96 CALM      30.25S
GOLDSBORO      CLOUDY    33  30  87 CALM      30.24S
KINSTON        CLOUDY    32  31  96 CALM      30.27S
KENANSVILLE    CLEAR     28  28 100 CALM      30.26S FOG
NEW BERN       CLOUDY    33  33 100 CALM      30.27F
CHERRY POINT   NOT AVBL
BEAUFORT       CLOUDY    37  35  92 CALM      30.27S
JACKSONVILLE   CLEAR     35  35 100 CALM      30.25F
WILMINGTON     PTCLDY    37  35  92 CALM      30.25F
$$




USA.gov is the U.S. government's official web portal to all federal, state and local government web resources and services.